Simultaneous Nadir Overpasses (SNOs) Predictions

Prediction of SNOs between NOAA-20 and AQUA Satellite Orbit:

Table of predicted SNOs for the next 14.0 days since TLE Epoch: 1/3/2020
Index Date (NOAA-20) Time (NOAA-20) Lat,Lon (NOAA-20) SZA (NOAA-20 ) Date (AQUA) Time (AQUA) Lat,Lon (AQUA) SZA (AQUA ) Distance(km) Time Diff (sec)
1 01/05/2020 13:39:33 74.73,-149.60 120.99 01/05/2020 13:40:42 74.73,-149.55 120.90 1.78 69
2 01/05/2020 14:29:50 -76.09, 21.89 60.57 01/05/2020 14:29:42 -76.09, 21.89 60.56 0.14 8
3 01/08/2020 05:56:22 75.12, -32.73 120.30 01/08/2020 05:57:03 75.13, -32.65 120.24 2.68 41
4 01/08/2020 06:46:40 -76.37, 138.66 61.16 01/08/2020 06:46:04 -76.37, 138.69 61.13 1.01 36
5 01/10/2020 22:13:00 75.97, 85.70 119.02 01/10/2020 22:13:14 75.96, 85.61 119.03 2.76 14
6 01/10/2020 23:03:31 -76.65,-104.54 61.80 01/10/2020 23:02:27 -76.65,-104.49 61.75 1.53 64
7 01/13/2020 13:39:39 -74.76, 30.46 59.95 01/13/2020 13:40:41 -74.77, 30.54 60.03 2.56 62
8 01/13/2020 14:29:49 76.34,-157.24 118.22 01/13/2020 14:29:35 76.32,-157.34 118.26 2.87 14
9 01/16/2020 05:56:26 -75.24, 147.60 60.91 01/16/2020 05:57:00 -75.25, 147.69 60.96 2.76 34




NCC Satellite Simultaneous Nadir Overpasses (SNOs) Prediction Service
